TimeEST,TemperatureF,Dew PointF,Humidity,Sea Level PressureIn,VisibilityMPH,Wind Direction,Wind SpeedMPH,Gust SpeedMPH,PrecipitationIn,Events,Conditions,WindDirDegrees,DateUTC
12:54 AM,34.0,28.0,79,30.11,10.0,Calm,Calm,-,N/A,,Clear,0,2013-12-20 05:54:00
1:54 AM,32.0,28.0,85,30.11,10.0,Calm,Calm,-,N/A,,Clear,0,2013-12-20 06:54:00
2:54 AM,30.9,28.9,92,30.10,10.0,Calm,Calm,-,N/A,,Clear,0,2013-12-20 07:54:00
3:54 AM,30.9,28.0,89,30.10,10.0,Calm,Calm,-,N/A,,Clear,0,2013-12-20 08:54:00
4:54 AM,30.0,28.0,92,30.10,10.0,Calm,Calm,-,N/A,,Clear,0,2013-12-20 09:54:00
5:54 AM,28.9,27.0,92,30.09,10.0,Calm,Calm,-,N/A,,Clear,0,2013-12-20 10:54:00
6:54 AM,28.9,27.0,92,30.10,10.0,Calm,Calm,-,N/A,,Clear,0,2013-12-20 11:54:00
7:54 AM,28.9,28.0,96,30.10,10.0,Variable,3.5,-,N/A,,Clear,0,2013-12-20 12:54:00
8:54 AM,33.1,28.9,85,30.08,10.0,SSE,3.5,-,N/A,,Clear,160,2013-12-20 13:54:00
9:54 AM,42.1,30.0,62,30.08,10.0,SW,6.9,-,N/A,,Clear,220,2013-12-20 14:54:00
10:54 AM,45.0,30.0,56,30.06,10.0,SW,8.1,-,N/A,,Clear,220,2013-12-20 15:54:00
11:54 AM,46.9,28.9,50,30.04,10.0,SSW,5.8,-,N/A,,Clear,210,2013-12-20 16:54:00
12:54 PM,48.9,28.9,46,30.02,10.0,SSW,6.9,-,N/A,,Clear,210,2013-12-20 17:54:00
1:54 PM,50.0,28.9,44,30.01,10.0,SSW,9.2,-,N/A,,Clear,200,2013-12-20 18:54:00
2:54 PM,50.0,28.9,44,29.98,10.0,SSW,6.9,-,N/A,,Clear,200,2013-12-20 19:54:00
3:54 PM,48.9,30.9,50,30.01,10.0,Calm,Calm,-,N/A,,Mostly Cloudy,0,2013-12-20 20:54:00
4:54 PM,46.9,30.9,54,30.01,10.0,South,4.6,-,N/A,,Scattered Clouds,190,2013-12-20 21:54:00
5:54 PM,45.0,30.9,58,30.03,10.0,South,3.5,-,N/A,,Overcast,170,2013-12-20 22:54:00
6:54 PM,46.0,32.0,58,30.02,10.0,South,5.8,-,N/A,,Overcast,190,2013-12-20 23:54:00
7:54 PM,46.0,33.1,61,30.03,10.0,SSW,4.6,-,N/A,,Overcast,210,2013-12-21 00:54:00
8:54 PM,43.0,33.1,68,30.02,10.0,Calm,Calm,-,N/A,,Mostly Cloudy,0,2013-12-21 01:54:00
9:54 PM,39.9,33.1,77,30.01,10.0,Calm,Calm,-,N/A,,Scattered Clouds,0,2013-12-21 02:54:00
10:54 PM,37.9,33.1,83,30.01,10.0,SSW,3.5,-,N/A,,Mostly Cloudy,200,2013-12-21 03:54:00
11:54 PM,39.9,34.0,79,30.01,10.0,SSW,3.5,-,N/A,,Overcast,200,2013-12-21 04:54:00